Wetbulb
54.94 55.47 55.40 54.79 54.97 56.04 55.16 55.32 52.62 53.51 54.25 57.28 61.77 62.88 64.35 64.94 70.78 70.17 70.47 71.20 72.50 73.01 73.83 74.67 75.29 74.99 74.24 72.62 72.40 71.27 70.52 68.45 67.78 67.73 68.45 69.11 68.86 68.88 69.22 68.99 69.35 70.14 70.42 73.22
53.62 55.64 55.44 54.10 55.55 55.13 55.94 54.71 54.97 56.20 55.89 59.43 63.73 64.05 62.85 63.27 69.63 69.55 70.34 71.39 72.34 73.07 73.44 73.56 74.33 73.09 73.37 71.91 72.44 71.23 69.97 68.11 67.71 66.63 66.37 67.59 67.93 68.11 68.32 68.92 68.70 69.31 69.58 69.53
51.96 55.51 54.40 51.97 54.81 54.96 55.85 57.43 56.50 53.61 57.02 60.50 60.36 61.74 62.11 62.78 67.29 67.60 70.07 70.93 70.66 70.60 69.60 71.62 72.89 74.16 72.30 72.27 72.32 69.47 68.63 68.64 67.48 66.47 65.77 66.50 68.52 68.38 68.00 68.53 69.13 70.12 70.04 69.59
51.74 53.71 47.06 54.78 58.00 57.94 57.02 57.38 58.77 58.27 59.44 60.80 61.39 63.08 63.06 64.64 65.67 61.26 70.73 69.44 68.30 67.97 69.03 70.80 71.61 72.82 72.85 71.51 70.41 69.68 69.18 68.56 67.71 67.45 66.85 67.59 68.09 68.04 68.78 68.85 68.73 69.61 69.45 69.08
50.98 49.55 52.47 54.06 56.69 56.96 55.48 55.74 59.46 58.04 59.00 61.01 61.58 57.56 59.38 63.05 64.16 70.88 69.90 69.32 68.66 68.61 69.55 70.18 70.66 71.46 70.07 69.43 69.32 69.30 69.11 69.50 69.27 68.87 68.61 68.21 68.15 68.41 69.09 68.82 68.39 68.09 68.86 68.39
52.17 47.86 46.24 54.75 58.21 60.84 59.52 52.36 62.47 61.84 61.47 60.81 60.36 54.05 57.92 59.18 60.32 70.45 70.60 70.13 69.00 68.42 68.44 68.80 70.70 70.92 69.64 69.01 68.62 67.57 67.53 67.89 69.47 68.33 68.64 67.19 67.53 67.33 67.01 67.08 67.93 67.28 68.00 68.95
52.20 49.93 52.46 57.99 59.72 61.25 51.89 55.17 62.96 62.60 62.43 63.25 61.72 68.13 64.47 63.17 64.39 71.44 71.56 71.23 70.57 69.68 67.99 68.67 69.99 70.92 68.32 67.18 65.42 66.23 67.13 68.27 68.33 68.45 67.84 68.09 68.40 68.59 68.54 68.70 68.27 67.73 67.61 67.49
53.51 50.77 47.90 59.38 59.23 56.45 59.16 63.13 63.51 65.39 66.01 64.91 66.51 69.16 70.82 71.75 71.62 71.55 70.93 70.75 69.57 68.69 69.65 70.24 69.59 67.09 65.91 65.91 67.50 67.78 67.82 66.97 67.07 67.43 66.16 65.90 67.26 67.16 66.59 67.21 65.91 66.13 66.10 65.57
55.09 54.23 60.31 61.52 60.27 61.97 61.61 58.35 61.25 63.39 63.92 61.78 62.44 60.23 68.83 70.61 70.74 70.43 69.45 69.19 67.36 66.55 65.87 66.44 66.64 67.21 66.85 67.23 68.42 68.40 67.84 67.25 66.82 66.32 65.82 65.86 66.03 65.80 64.03 65.88 64.22 65.18 64.98 63.87
56.31 58.10 59.44 60.52 60.83 60.63 60.49 60.02 61.09 62.71 62.15 61.77 59.14 54.16 53.47 67.58 69.04 68.28 66.90 65.07 65.18 66.02 64.28 64.73 66.17 66.76 67.81 68.16 69.05 68.38 67.00 66.52 65.55 64.19 65.46 65.93 64.45 65.38 63.76 61.54 58.33 57.76 59.08 60.52
54.98 58.03 58.59 60.30 59.85 59.52 59.12 60.32 61.03 62.84 62.96 60.70 57.97 56.71 56.11 55.15 66.06 64.46 63.93 65.39 66.51 65.81 63.63 64.76 63.99 65.34 65.84 66.80 66.82 65.10 64.79 64.47 64.83 62.92 64.12 64.54 65.69 63.36 62.58 62.62 59.84 59.81 59.95 59.14
51.86 57.26 56.71 57.53 59.17 58.89 59.88 60.94 62.13 62.22 62.32 59.79 57.96 55.50 55.67 53.94 58.66 64.79 63.53 64.39 63.86 63.31 64.22 64.34 64.52 64.37 65.06 65.57 65.25 64.62 62.94 62.92 58.71 61.76 62.84 62.09 62.93 62.44 54.48 54.07 51.35 49.69 48.50 53.55
56.52 58.54 58.25 58.69 59.58 59.80 59.21 59.95 61.18 62.73 63.72 61.01 58.64 56.31 56.25 60.92 64.34 62.15 64.71 65.52 65.23 64.75 63.91 64.28 64.52 63.73 64.86 64.57 64.19 63.84 63.97 62.39 60.13 59.23 61.29 63.28 62.34 62.51 60.44 54.35 49.37 49.35 48.07 48.78
60.24 58.95 57.26 58.78 57.30 59.42 60.11 61.00 61.47 63.41 65.64 61.12 59.75 62.89 62.13 61.73 62.28 62.47 62.16 62.92 64.83 64.52 63.91 63.61 62.33 61.52 63.20 63.82 63.01 62.16 60.54 53.15 59.06 62.11 61.09 61.36 60.56 59.31 59.08 59.34 59.30 57.98 48.93 49.78
59.00 59.21 58.45 58.99 59.71 59.85 60.90 60.53 60.58 61.15 64.23 61.84 63.11 61.48 59.29 60.46 60.74 61.48 62.13 62.69 62.36 62.00 61.89 62.65 62.34 62.31 63.43 62.99 62.08 61.06 60.64 60.30 60.41 59.77 59.88 59.02 60.92 60.46 58.50 58.35 58.06 58.22 59.68 50.29
58.76 58.84 58.97 58.32 58.73 59.24 59.45 59.99 59.78 59.82 61.83 60.49 62.70 61.74 62.01 62.28 62.67 62.53 62.66 62.89 62.27 60.22 62.05 62.73 62.58 62.90 63.66 63.56 61.87 61.19 61.51 59.84 56.89 60.75 58.66 59.53 58.72 58.29 57.51 58.62 58.17 57.11 57.32 57.90
56.24 55.94 56.79 57.13 57.72 58.70 59.38 60.35 61.54 62.10 62.35 60.01 62.67 63.15 62.79 62.50 61.46 61.21 61.70 62.29 62.88 62.67 63.45 63.62 62.63 63.49 62.68 62.49 62.79 60.89 60.38 60.03 58.37 59.21 59.21 59.17 58.95 58.61 58.67 57.86 56.55 56.28 54.45 57.64
58.76 58.52 58.49 58.71 58.47 58.09 59.78 61.12 60.90 63.00 62.16 63.67 63.59 62.99 61.95 60.91 59.22 59.23 60.70 61.53 61.97 62.22 62.54 63.63 63.76 63.90 63.49 62.28 62.14 61.22 60.38 60.15 60.05 59.22 59.34 60.46 57.79 58.68 59.19 56.41 56.27 54.81 55.20 55.07
58.26 58.04 58.79 59.08 59.01 59.59 60.39 60.78 61.81 63.09 63.35 63.77 62.01 60.86 60.45 60.27 60.05 60.79 61.11 60.43 60.83 60.70 61.07 62.52 58.93 60.14 62.34 61.12 60.72 59.09 58.40 58.69 59.12 59.03 59.53 56.68 58.04 57.59 56.96 57.29 58.43 55.70 55.65 55.56
57.29 58.37 59.12 58.79 59.88 59.36 59.57 61.59 62.32 62.33 62.02 60.20 61.09 61.62 59.73 59.91 60.26 60.30 61.68 58.26 58.57 60.86 63.14 61.19 59.38 60.57 60.88 61.48 60.34 58.47 57.93 58.69 58.22 58.01 58.03 56.64 56.89 56.92 56.64 52.29 55.69 56.11 55.87 57.54
56.79 57.75 57.75 57.88 58.31 59.26 60.13 61.42 61.45 60.93 59.18 59.98 61.15 61.25 60.85 61.12 59.34 59.56 59.94 58.75 60.61 60.95 62.15 59.35 60.46 59.84 55.77 58.92 57.52 57.64 58.42 58.02 57.96 57.70 57.15 56.36 56.57 56.49 57.07 57.41 56.54 56.60 55.94 54.27
57.41 57.09 57.76 58.21 58.27 58.27 59.35 60.21 61.14 61.17 60.29 60.81 60.62 60.80 60.49 59.97 59.24 59.76 58.37 57.71 59.34 55.58 58.84 59.68 59.69 56.99 57.51 55.44 57.40 58.52 56.91 57.60 57.68 57.21 57.22 56.60 56.46 56.76 57.76 57.23 56.43 56.92 55.06 56.81
58.26 58.67 58.69 58.61 58.26 58.18 58.44 58.23 59.67 60.76 60.02 60.43 60.37 59.35 59.88 60.22 59.37 56.20 56.79 62.16 60.40 55.55 58.08 59.85 54.96 55.41 55.21 58.23 58.29 58.40 57.80 57.85 57.41 57.69 57.55 57.83 57.46 54.36 54.38 57.22 57.64 57.55 56.94 56.93
58.93 59.25 58.96 59.23 58.92 58.30 56.02 55.59 58.71 57.99 57.88 58.96 61.39 61.14 57.93 58.53 59.41 60.46 60.97 55.34 53.77 55.77 58.04 56.99 56.46 55.91 52.70 57.24 58.08 58.42 58.27 58.13 58.22 58.25 59.49 52.57 59.23 59.19 57.75 58.45 58.11 58.11 58.05 55.80
59.32 58.97 58.30 57.62 56.95 56.80 55.83 54.95 56.01 55.41 56.73 59.48 58.53 61.59 63.54 61.18 59.28 59.61 60.32 59.56 53.31 56.09 58.72 52.54 52.87 54.14 56.95 58.73 58.59 57.86 58.57 58.47 58.43 58.27 56.45 57.34 57.98 55.56 55.85 56.94 58.73 57.64 58.08 58.54
57.68 57.56 56.86 57.94 56.49 55.75 54.80 55.02 55.47 56.37 56.87 57.10 58.93 60.48 58.72 61.06 59.75 59.10 60.51 58.69 60.62 58.18 59.09 59.52 58.87 57.79 58.57 57.75 58.67 58.45 58.68 58.53 58.37 58.20 57.33 57.52 59.57 58.08 59.21 58.88 57.50 55.82 56.74 57.22
55.82 50.56 55.98 56.85 57.73 55.69 55.41 54.76 56.53 55.29 55.37 56.98 57.31 58.58 59.71 59.58 58.97 57.42 54.93 59.53 59.33 59.41 60.07 58.89 59.85 56.56 58.86 59.03 57.93 57.48 59.26 58.89 53.66 57.42 58.51 57.36 56.91 56.96 57.48 55.46 57.97 58.26 56.84 57.43
MSLP
997.13 996.55 995.74 995.41 995.69 996.77 996.28 997.09 997.57 998.30 999.07 999.79 999.81 998.90 997.84 997.25 997.83 998.59 999.41 1000.08 1000.71 1001.21 1001.52 1002.11 1002.65 1003.01 1003.41 1004.28 1005.63 1006.79 1007.18 1008.71 1010.34 1010.43 1011.71 1010.48 1010.65 1010.67 1011.42 1011.52 1010.93 1011.10 1012.04 1011.83
997.44 997.17 996.59 995.77 995.72 995.76 996.47 997.44 998.40 999.25 999.20 1000.35 1000.34 1000.28 1000.03 999.30 997.65 999.16 1000.62 1000.85 1002.04 1002.39 1002.87 1003.20 1003.57 1004.07 1004.53 1005.41 1006.63 1007.38 1007.99 1009.65 1010.50 1010.48 1009.97 1010.25 1010.16 1011.13 1011.11 1011.45 1011.82 1012.05 1011.74 1012.89
997.50 997.53 996.89 996.47 996.07 995.96 996.57 997.43 999.90 1000.25 999.82 1000.81 1001.37 1001.13 1001.72 1001.64 1001.87 1001.29 1002.02 1002.11 1002.67 1003.73 1004.55 1004.55 1004.94 1005.11 1005.79 1006.59 1007.30 1008.00 1009.19 1010.26 1011.01 1011.14 1011.05 1011.83 1011.16 1010.65 1011.44 1011.48 1011.73 1011.81 1012.59 1012.65
998.63 998.64 997.10 996.64 996.54 996.66 997.81 999.97 1000.91 1001.10 1001.55 1002.51 1003.76 1004.58 1004.64 1004.59 1004.22 1002.93 1003.40 1003.93 1004.73 1005.22 1004.77 1005.25 1005.86 1006.18 1006.27 1007.10 1008.19 1008.82 1009.35 1010.10 1010.67 1011.21 1011.66 1011.71 1011.45 1011.49 1011.68 1011.39 1011.63 1011.19 1011.67 1011.81
998.61 998.41 997.62 997.59 997.64 998.03 999.04 999.94 1000.33 1000.81 1001.77 1002.88 1003.58 1004.77 1005.81 1006.79 1003.33 1003.65 1003.68 1004.71 1005.61 1005.40 1005.20 1005.46 1006.22 1006.56 1007.04 1007.35 1008.28 1008.70 1009.21 1009.71 1010.05 1010.43 1010.75 1010.99 1011.04 1011.31 1011.34 1011.16 1011.05 1011.26 1011.87 1012.30
998.80 998.84 998.35 998.42 999.04 999.11 998.94 999.50 1000.02 1000.81 1001.73 1002.19 1002.51 1004.69 1005.57 1006.42 1006.49 1003.41 1003.60 1004.45 1004.79 1005.45 1005.61 1006.53 1006.43 1006.69 1007.16 1007.69 1008.45 1008.98 1009.24 1009.83 1010.07 1010.35 1010.71 1011.01 1011.04 1011.23 1011.32 1011.31 1011.52 1011.85 1012.28 1012.61
998.84 999.51 999.76 1000.12 1000.15 1000.06 1000.15 1001.15 1000.80 1000.86 1000.96 1001.27 1001.90 1001.86 1003.30 1003.32 1005.34 1002.90 1002.81 1003.39 1004.40 1005.23 1005.97 1006.49 1006.90 1006.86 1007.27 1007.97 1008.76 1009.25 1009.62 1010.00 1010.44 1010.83 1011.08 1011.34 1011.54 1011.38 1011.54 1011.66 1012.07 1012.23 1012.48 1012.53
999.45 1000.06 1000.85 1001.74 1001.57 1002.45 1003.89 1002.20 1001.95 1001.57 1001.65 1001.86 1001.80 1001.77 1001.82 1002.19 1001.88 1002.19 1002.28 1003.43 1004.62 1005.32 1005.58 1006.35 1006.96 1007.46 1007.85 1008.54 1009.25 1009.65 1009.89 1010.28 1010.58 1010.85 1010.92 1011.57 1011.76 1011.97 1012.09 1012.12 1012.19 1012.30 1012.32 1012.20
1001.13 1001.55 1002.73 1002.66 1003.66 1004.08 1003.87 1003.91 1002.93 1002.84 1002.94 1004.43 1004.11 1003.83 1001.38 1002.01 1002.80 1002.58 1002.87 1003.22 1004.14 1005.28 1006.36 1006.95 1007.37 1008.04 1008.68 1009.51 1009.81 1010.20 1010.46 1010.70 1010.83 1011.16 1011.48 1011.71 1011.82 1012.00 1012.14 1012.25 1012.00 1011.89 1011.92 1011.99
1001.87 1001.97 1003.00 1003.69 1004.36 1004.57 1004.62 1004.10 1003.66 1003.48 1004.06 1004.91 1005.82 1005.64 1005.77 1002.43 1001.95 1002.28 1003.91 1003.93 1004.43 1005.70 1007.11 1007.71 1007.82 1008.60 1009.48 1009.67 1010.19 1010.60 1010.70 1011.13 1011.26 1011.47 1011.67 1011.75 1011.76 1011.71 1011.90 1012.10 1012.27 1012.30 1012.25 1012.17
1002.70 1003.04 1003.62 1003.53 1004.20 1004.45 1004.20 1004.00 1003.89 1004.01 1004.83 1005.89 1006.21 1005.71 1004.95 1003.98 1004.92 1004.26 1005.26 1005.27 1005.54 1006.56 1007.48 1008.13 1008.80 1008.28 1009.83 1009.44 1010.89 1010.99 1011.12 1011.33 1011.40 1011.19 1011.34 1011.50 1011.64 1011.81 1012.22 1012.65 1012.91 1013.09 1013.17 1013.26
1003.63 1004.41 1004.79 1004.77 1004.75 1004.32 1003.57 1003.62 1003.81 1004.22 1004.85 1006.20 1006.32 1006.34 1005.01 1007.31 1006.34 1004.54 1005.76 1006.01 1006.57 1007.42 1008.09 1008.58 1008.66 1009.88 1009.78 1009.87 1010.75 1011.33 1011.29 1011.25 1011.23 1011.00 1010.94 1011.18 1011.57 1011.91 1012.31 1012.64 1012.92 1013.20 1013.29 1013.34
1004.69 1005.04 1005.18 1005.17 1004.94 1004.41 1003.87 1003.81 1003.97 1004.24 1005.16 1005.98 1005.85 1006.20 1007.09 1006.43 1005.12 1004.06 1005.67 1006.17 1006.91 1007.43 1008.25 1008.79 1009.23 1009.99 1010.47 1011.00 1011.08 1011.56 1011.34 1011.31 1011.26 1011.13 1011.16 1011.35 1011.62 1011.80 1012.11 1012.80 1012.98 1013.24 1013.42 1013.81
1005.66 1005.55 1005.16 1005.05 1004.87 1004.50 1003.86 1003.40 1003.75 1004.08 1005.00 1005.97 1006.71 1006.30 1006.73 1007.73 1008.33 1006.43 1006.84 1007.60 1007.49 1008.39 1008.22 1009.01 1009.71 1010.59 1011.03 1011.26 1011.81 1011.69 1011.56 1011.62 1011.56 1011.17 1011.26 1011.38 1011.56 1012.00 1012.11 1012.07 1012.34 1012.72 1013.37 1013.67
1005.97 1005.96 1005.59 1005.28 1005.02 1004.52 1003.79 1003.42 1003.79 1004.28 1004.91 1006.11 1007.27 1006.64 1005.20 1006.19 1008.50 1008.40 1007.75 1008.42 1008.85 1008.76 1009.04 1009.54 1009.82 1010.59 1011.01 1011.58 1011.73 1011.46 1011.39 1011.24 1011.40 1011.52 1011.42 1011.48 1011.62 1011.97 1012.26 1012.33 1012.38 1012.49 1012.45 1013.42
1006.47 1006.21 1005.87 1005.60 1005.31 1004.96 1004.38 1003.96 1003.92 1004.37 1005.92 1005.83 1007.86 1007.42 1007.34 1007.26 1008.14 1008.99 1009.00 1008.12 1008.01 1008.35 1008.85 1009.85 1010.61 1010.95 1011.15 1011.50 1011.65 1011.56 1011.61 1011.55 1011.63 1011.62 1011.59 1011.54 1011.79 1011.88 1011.99 1012.38 1012.54 1012.47 1012.29 1012.32
1006.63 1006.51 1006.35 1006.18 1006.33 1006.04 1005.20 1004.89 1004.51 1004.32 1005.54 1006.26 1006.44 1007.35 1007.94 1008.10 1007.87 1008.50 1008.35 1008.25 1008.28 1009.06 1009.55 1010.04 1010.62 1011.11 1011.27 1011.70 1011.68 1011.35 1011.12 1011.16 1011.39 1011.52 1011.36 1011.38 1011.37 1011.68 1011.84 1012.06 1012.12 1012.25 1012.22 1012.11
1006.88 1006.89 1006.58 1006.22 1006.27 1006.30 1006.04 1005.71 1005.45 1004.34 1005.32 1005.95 1005.50 1006.70 1007.82 1007.85 1007.97 1008.08 1007.36 1008.52 1009.26 1009.81 1010.05 1010.31 1010.50 1010.93 1011.23 1011.45 1011.56 1011.19 1010.87 1010.81 1011.01 1011.12 1010.95 1011.02 1011.30 1011.46 1011.67 1011.73 1011.85 1012.00 1012.12 1011.97
1006.93 1006.87 1006.75 1006.81 1006.88 1006.84 1006.68 1006.37 1006.06 1005.57 1005.86 1006.35 1006.75 1007.31 1007.54 1008.14 1008.55 1008.29 1008.72 1009.53 1009.97 1010.13 1010.34 1010.57 1011.03 1011.14 1011.14 1011.42 1011.32 1011.29 1011.12 1010.94 1010.78 1011.01 1011.02 1011.20 1011.21 1011.39 1011.60 1011.72 1011.83 1011.99 1012.04 1012.10
1007.24 1007.10 1007.36 1007.49 1007.30 1007.21 1007.34 1007.15 1006.75 1006.40 1007.06 1007.46 1006.71 1008.01 1008.09 1008.14 1008.75 1009.10 1009.87 1010.20 1010.28 1010.19 1010.45 1010.69 1011.14 1011.18 1011.24 1011.55 1011.45 1011.29 1010.85 1010.75 1010.79 1010.98 1011.09 1011.23 1011.19 1011.18 1011.53 1011.63 1011.48 1011.60 1011.69 1011.85
1007.54 1007.26 1007.47 1007.82 1007.83 1007.88 1007.77 1007.83 1007.58 1007.14 1007.02 1006.25 1007.44 1008.00 1008.22 1008.82 1009.07 1009.32 1010.06 1010.19 1010.13 1010.41 1010.49 1010.93 1011.00 1010.73 1011.25 1011.19 1010.93 1010.66 1010.76 1010.71 1010.68 1010.69 1010.69 1010.90 1010.96 1010.96 1011.30 1011.19 1011.43 1011.27 1011.38 1011.00
1007.86 1007.82 1008.00 1008.10 1008.34 1008.33 1008.53 1008.53 1008.36 1008.19 1007.92 1007.71 1008.22 1008.81 1009.20 1009.59 1009.88 1010.35 1010.30 1010.22 1010.33 1010.53 1010.51 1010.46 1010.69 1010.96 1010.93 1011.06 1010.80 1010.90 1011.14 1010.89 1010.85 1010.82 1010.57 1010.77 1010.88 1010.80 1010.78 1010.59 1010.55 1010.64 1010.68 1010.47
1008.17 1008.42 1008.51 1008.76 1008.96 1008.93 1009.00 1009.17 1008.98 1008.55 1008.67 1008.87 1009.19 1009.57 1009.85 1009.80 1009.62 1009.58 1009.68 1009.86 1010.19 1010.52 1010.17 1010.37 1010.87 1011.02 1011.13 1010.89 1010.56 1010.80 1010.82 1010.72 1010.72 1010.61 1010.48 1010.49 1010.51 1010.45 1010.44 1010.29 1010.00 1010.11 1010.07 1010.05
1008.60 1008.76 1008.98 1009.30 1009.46 1009.44 1009.51 1009.96 1009.73 1009.22 1009.44 1009.20 1009.31 1009.47 1009.54 1009.06 1008.96 1009.16 1009.35 1009.90 1010.23 1010.26 1010.06 1010.74 1010.69 1010.67 1010.74 1010.28 1009.94 1009.92 1010.19 1010.20 1010.16 1010.09 1009.99 1010.19 1009.93 1010.02 1010.11 1009.87 1009.57 1009.36 1009.55 1009.63
1009.12 1009.21 1009.57 1009.71 1009.80 1010.09 1010.40 1010.23 1009.95 1009.94 1009.82 1009.49 1009.66 1008.85 1008.74 1008.70 1009.08 1009.02 1009.24 1009.46 1009.80 1009.83 1009.25 1009.88 1010.04 1010.24 1010.29 1009.66 1009.23 1009.17 1009.05 1009.10 1009.29 1009.58 1009.64 1009.56 1009.48 1009.42 1009.44 1009.18 1009.03 1009.20 1009.10 1009.13
1009.37 1009.45 1009.67 1009.91 1010.53 1010.85 1010.76 1010.76 1010.75 1010.22 1009.71 1009.49 1009.07 1008.81 1008.65 1008.53 1008.69 1008.67 1008.80 1008.88 1008.99 1009.22 1008.82 1008.90 1009.43 1009.74 1009.47 1009.01 1008.48 1008.34 1008.38 1008.57 1008.64 1008.88 1008.77 1008.75 1008.48 1008.72 1008.50 1008.92 1009.01 1008.99 1009.48 1009.39
1009.34 1009.66 1009.79 1010.09 1010.84 1010.99 1011.18 1011.16 1010.86 1010.38 1009.95 1009.23 1009.09 1008.76 1008.47 1008.18 1008.36 1008.39 1008.58 1008.20 1008.36 1008.45 1008.45 1008.46 1008.54 1008.66 1008.64 1008.23 1008.37 1008.73 1008.63 1008.37 1008.54 1008.44 1008.44 1008.30 1008.48 1008.38 1008.67 1008.33 1009.04 1009.03 1009.04 1009.01
Wind_Speed
20 23 25 23 10 20 17 15 12 17 21 15 16 14 10 11 9 9 7 5 8 6 4 6 6 8 7 12 10 13 16 19 17 16 14 13 8 8 9 8 9 10 11 10
20 21 22 26 23 24 10 4 18 22 19 6 11 14 17 11 10 9 6 8 6 8 6 7 4 6 9 10 13 13 14 14 9 11 14 10 5 7 4 3 5 2 8 10
16 18 19 15 24 19 23 11 19 13 15 18 13 7 2 11 9 11 5 10 11 7 7 1 8 10 11 12 12 13 13 9 8 6 5 2 4 7 4 2 1 5 5 6
15 17 24 17 18 13 18 19 9 11 13 18 20 17 17 15 11 9 15 8 7 6 9 6 8 8 12 12 10 11 9 9 5 6 6 5 3 5 5 3 4 3 3 3
14 15 22 23 10 11 11 10 12 13 13 20 9 12 19 19 14 5 14 11 10 9 9 9 7 11 11 11 9 8 9 7 6 5 5 4 5 4 2 3 5 5 4 4
10 17 21 17 15 17 8 7 7 3 3 8 2 4 7 21 24 10 15 14 13 11 10 9 7 13 11 9 9 9 10 9 7 8 8 6 5 4 4 4 3 3 2 2
9 12 8 13 20 18 10 9 13 13 14 4 5 2 23 29 30 14 15 17 17 16 11 11 9 8 11 12 11 10 9 9 8 7 7 6 5 4 2 1 2 2 2 3
9 10 14 17 8 8 13 19 20 20 19 14 13 9 7 14 14 14 15 21 16 14 13 11 10 9 9 11 10 10 9 9 7 6 5 5 3 3 1 1 2 4 4 5
5 4 7 12 13 7 8 9 17 19 19 24 23 30 11 14 14 13 14 13 16 13 10 7 10 10 12 8 8 8 8 7 7 6 4 4 3 2 4 5 4 3 2 3
9 10 12 10 10 12 13 16 17 17 16 19 16 18 27 20 10 10 6 15 15 15 12 10 11 11 8 8 6 6 6 6 4 6 4 2 3 3 3 6 8 7 7 6
8 9 15 4 15 14 15 15 15 15 17 9 7 8 16 17 14 6 8 8 14 13 10 12 8 12 4 8 4 5 4 3 3 7 3 4 2 4 3 4 2 0 3 3
8 10 10 13 18 22 15 18 18 19 10 5 3 8 9 22 19 11 11 10 12 12 12 11 11 7 7 7 3 3 3 2 4 4 2 4 2 3 3 5 7 5 3 2
8 12 13 15 16 18 17 17 17 17 7 6 5 5 7 9 13 7 14 14 13 13 13 11 11 7 4 3 3 1 3 3 3 2 4 2 1 1 3 5 7 8 8 4
11 13 13 13 16 17 18 15 13 13 7 8 4 6 15 14 15 13 10 6 8 10 11 10 8 7 6 5 3 3 5 2 3 2 2 2 4 4 5 4 2 3 6 8
13 15 17 17 18 18 18 15 15 14 3 6 3 8 10 14 10 6 11 7 5 7 6 6 8 7 5 5 3 2 2 2 1 4 5 4 3 2 4 7 6 5 4 5
11 13 15 16 17 19 19 18 17 9 11 13 8 11 9 8 9 8 7 4 8 6 8 6 6 6 5 4 1 3 3 4 2 3 3 1 2 4 3 3 5 6 6 4
11 11 12 10 11 19 19 18 17 12 4 17 14 12 10 11 11 9 5 5 6 7 5 6 7 7 5 3 4 6 3 6 9 7 7 5 5 4 4 4 4 5 4 4
8 11 14 14 11 12 15 17 17 9 2 9 15 14 12 11 9 4 9 8 5 5 4 5 4 7 5 6 5 6 5 5 4 8 8 4 2 1 5 5 5 2 6 3
10 12 11 14 13 13 13 14 15 8 4 8 13 12 11 11 9 7 9 6 6 6 5 5 4 1 4 4 2 5 7 7 6 4 3 1 2 4 5 6 5 4 4 5
14 10 9 13 13 9 11 13 12 7 7 5 9 12 11 11 8 8 5 4 5 3 5 8 6 6 7 6 2 6 8 4 5 5 4 5 6 4 3 1 2 4 5 4
12 10 5 9 11 12 10 10 9 4 6 10 12 10 10 10 8 7 4 4 7 4 4 8 6 2 5 3 4 6 6 6 6 6 4 5 6 0 3 4 5 2 6 2
11 8 7 8 9 8 9 10 7 4 4 7 9 7 8 6 1 5 9 7 6 9 6 7 6 6 6 4 5 2 5 6 6 5 2 2 4 5 5 6 2 4 5 6
7 9 9 8 9 7 5 6 7 6 6 7 7 6 5 5 8 6 6 2 6 2 5 7 8 8 7 4 2 1 4 5 2 3 2 4 3 2 4 7 3 4 4 5
7 8 7 7 7 5 2 4 8 1 5 5 5 8 5 4 4 6 7 8 8 5 3 8 8 10 6 5 6 7 4 5 5 6 4 4 5 4 6 8 6 4 3 5
7 4 4 4 5 5 6 7 3 5 4 3 7 4 4 5 1 1 5 7 8 7 5 13 12 10 6 7 6 5 5 5 4 6 4 4 7 5 5 6 6 5 4 4
5 2 3 5 7 4 4 3 3 3 4 3 3 3 1 4 6 4 4 4 6 7 7 6 8 8 9 7 7 6 4 3 6 7 8 6 6 6 6 4 5 1 3 2
4 1 3 4 5 4 2 5 6 6 7 4 4 6 6 6 5 3 0 5 6 6 3 5 4 3 7 8 4 4 8 9 2 0 2 4 3 3 2 4 2 1 1 2
Wind_Direction
281 288 291 299 214 268 260 329 2 339 30 5 4 17 11 173 118 148 160 198 116 127 106 95 83 79 76 81 82 84 91 90 92 100 69 351 47 44 30 40 49 41 19 8
271 283 292 288 285 289 224 263 312 302 318 42 356 8 11 27 181 121 147 149 100 96 73 38 48 117 102 105 95 100 94 92 97 128 146 184 124 153 146 92 87 59 61 326
286 294 291 298 289 300 317 313 344 334 359 342 301 302 331 317 326 344 190 119 139 116 77 76 79 84 101 105 104 95 97 88 99 102 60 255 148 102 85 72 105 160 187 194
276 286 278 287 283 313 50 346 334 338 325 52 17 13 325 346 332 133 225 122 119 141 142 132 116 115 114 110 105 114 109 105 114 125 150 174 129 133 173 171 216 55 52 28
254 248 267 272 323 358 357 277 229 217 241 276 47 43 342 346 330 319 121 154 166 148 135 118 139 124 116 115 129 131 109 112 136 151 124 116 118 108 118 70 51 43 3 358
267 276 283 304 16 344 310 265 38 173 101 334 31 104 152 277 272 152 152 155 138 136 127 128 143 134 126 119 112 100 89 84 75 79 85 83 80 69 40 43 22 19 274 285
302 300 298 2 355 345 290 6 336 309 301 152 195 234 171 203 228 168 157 151 143 138 143 147 148 140 112 106 103 111 107 100 100 95 90 83 81 77 78 39 38 200 294 274
247 262 299 28 330 25 355 2 356 344 341 330 313 282 204 159 147 163 158 139 139 134 141 156 126 112 98 100 107 110 118 117 105 74 78 92 85 93 52 235 270 262 246 261
333 15 83 50 65 63 25 328 338 331 346 7 3 359 268 141 175 151 141 118 116 108 102 101 91 98 100 107 116 119 111 109 108 98 101 110 107 131 235 210 232 222 220 257
345 328 47 41 29 6 340 326 325 324 346 351 344 22 21 308 126 121 109 113 113 115 102 104 101 99 101 106 114 122 111 102 109 111 130 108 278 159 5 37 23 4 355 3
303 355 353 332 359 341 313 307 320 327 335 5 37 24 33 332 285 93 117 125 121 115 118 99 79 101 107 99 115 79 94 125 198 145 141 170 142 95 96 101 131 251 5 353
338 0 341 336 330 314 329 334 326 320 348 0 83 101 76 274 276 128 120 117 98 100 111 117 125 97 93 86 95 154 184 179 52 344 58 85 12 123 103 132 174 198 193 266
357 354 330 318 310 319 319 319 318 320 83 15 318 137 194 242 268 143 129 124 131 134 112 112 103 88 80 108 132 169 29 54 108 234 55 45 337 320 344 199 198 206 228 249
338 316 308 312 311 306 301 310 320 312 107 109 114 63 68 39 358 62 73 91 113 108 100 104 113 128 144 128 142 119 105 78 300 290 23 319 65 1 310 302 303 187 221 219
336 322 309 310 308 315 317 319 336 315 132 78 52 145 126 131 145 175 113 118 113 115 136 158 132 125 133 139 155 113 264 227 129 353 348 358 345 317 330 329 343 337 331 194
311 321 323 323 323 322 319 319 318 331 78 66 129 149 153 141 132 147 154 142 144 126 125 127 125 138 139 128 150 214 236 255 341 326 282 255 183 239 260 307 325 301 287 309
314 316 318 323 326 323 324 324 315 333 102 171 160 148 143 132 118 129 118 81 68 108 127 140 153 141 166 174 232 273 267 215 211 229 253 262 254 266 282 264 258 276 316 342
317 311 306 317 328 320 324 315 324 358 310 157 124 136 141 133 124 125 115 102 103 109 151 158 160 153 201 192 222 287 303 325 212 231 251 290 323 293 271 267 276 249 283 256
311 306 330 336 327 329 329 326 320 331 191 160 138 147 133 127 140 130 109 141 177 165 127 135 95 206 242 106 313 319 308 303 318 91 67 79 290 304 322 316 323 310 289 321
311 328 328 313 324 326 324 323 327 306 122 106 160 141 146 134 126 133 172 170 208 168 162 146 190 223 229 153 131 285 289 3 339 340 335 315 308 297 53 163 247 286 330 323
302 311 316 295 319 328 323 336 326 25 60 197 133 130 112 119 143 149 211 219 113 140 156 165 229 200 102 152 307 342 329 332 335 339 338 350 314 277 239 264 236 246 252 259
317 332 329 321 311 315 339 335 321 245 171 100 108 126 142 146 121 158 216 181 169 187 207 214 193 55 91 352 311 14 4 345 345 289 311 278 294 280 246 275 244 249 215 234
323 319 307 302 292 306 323 327 304 261 175 162 143 148 160 202 205 163 138 115 139 126 293 102 126 148 190 253 290 42 308 297 293 339 319 315 356 1 311 304 296 235 280 316
331 308 300 325 328 294 285 16 321 72 150 141 145 184 226 232 164 137 146 114 134 180 242 146 184 194 218 274 225 208 216 235 262 286 269 260 270 256 260 271 282 284 286 248
339 336 6 21 28 43 37 30 3 41 358 134 235 222 175 100 112 179 160 147 164 218 269 170 191 199 225 258 287 291 243 235 250 253 241 249 257 239 242 237 250 274 259 273
24 48 68 72 88 86 50 357 152 205 240 229 274 214 147 181 160 182 174 223 173 217 259 170 199 210 242 261 282 298 15 330 240 232 247 270 250 236 254 297 286 254 46 342
125 171 142 110 116 136 196 261 260 248 246 210 213 235 216 212 108 307 238 192 223 198 260 284 148 171 280 283 63 23 324 303 92 151 291 271 325 309 96 170 292 79 151 251